Location: Aytr�
(46.1357°N, 1.1145°W)
Time: 21:31:54
(UTC+00:00)

SL-8 Rocket - Pass Details

Date: 03 March 2021
Orbit: 957 x 990 km, 82.9° (Epoch: 22 April)

Event Time Altitude Azimuth Distance (km) Brightness Sun altitude
Rises 19:50:20 0° 187° (S) 3,669 7.0 -20.9°
Reaches altitude 10° 19:52:50 10° 188° (S) 2,720 6.3 -21.3°
Maximum altitude 19:59:05 86° 276° (W) 981 4.0 -22.3°
Drops below altitude 10° 20:05:20 10° 8° (N) 2,716 6.4 -23.4°
Sets 20:07:50 0° 9° (N) 3,663 7.1 -23.8°
